CAPE
475 14 0 0 0 0 0 0 0 0 0 0 0 0 0 0 0 0 0 0 0 0 0 0 2 4 3 2 3 6 7 3 13 17 16 19 16 27 19 30 30 17 16 19 19 24 19 17 14
0 73 0 0 0 0 0 0 0 0 0 0 0 0 0 0 0 0 0 0 0 0 0 0 5 1 5 0 7 2 5 8 9 11 20 12 18 16 12 11 20 21 19 22 18 17 19 16 10
24 0 0 0 0 0 0 0 0 0 0 0 0 0 0 0 0 0 0 0 0 0 0 0 3 3 4 1 2 2 1 2 2 11 14 13 12 10 8 8 19 16 15 18 17 18 12 8 7
0 0 0 0 0 0 0 0 0 0 0 0 0 0 0 0 0 0 0 0 0 0 0 0 4 3 4 7 1 1 1 1 0 6 10 13 13 13 17 19 24 18 19 10 12 10 8 6 8
0 0 0 0 0 0 0 0 0 0 0 0 0 0 0 0 0 0 0 0 0 0 0 0 5 6 5 8 1 1 1 0 0 2 6 8 13 12 12 14 14 12 10 10 3 10 11 6 5
0 0 0 0 0 0 0 0 0 0 0 0 0 0 0 0 0 0 0 0 0 0 0 0 3 6 6 6 1 1 0 0 0 0 2 2 1 0 5 5 4 3 2 4 5 6 7 4 2
0 0 0 0 0 0 0 0 0 0 0 0 0 0 0 0 0 0 0 0 0 0 0 0 0 1 6 5 1 0 0 0 0 0 0 0 0 0 0 0 0 0 0 1 0 0 0 0 0
0 0 0 0 0 0 0 0 0 0 0 0 0 0 0 0 0 0 0 0 0 0 0 0 0 0 0 0 1 0 0 0 0 0 0 0 0 0 0 0 0 0 0 0 0 0 0 0 0
0 0 0 0 0 0 0 0 0 0 0 0 0 0 0 0 0 0 0 0 0 0 0 0 0 0 0 0 0 0 0 0 0 0 0 0 0 0 0 0 0 0 0 0 0 0 0 0 0
0 0 0 0 0 0 0 0 0 0 0 0 0 0 0 0 0 0 0 0 0 0 0 0 0 0 0 0 0 0 0 0 0 0 0 0 0 0 0 0 0 0 0 0 0 0 0 0 0
0 0 0 0 0 0 0 0 0 0 0 0 0 0 0 0 0 0 0 0 0 0 0 0 0 0 0 0 0 0 0 0 0 0 0 0 0 0 0 0 0 0 0 0 0 0 0 0 0
0 0 0 0 0 0 0 0 0 0 0 0 0 0 0 0 0 0 0 0 0 0 0 0 0 0 0 0 0 0 0 0 0 0 0 0 0 0 0 0 0 0 0 0 0 0 0 0 0
0 0 0 0 0 0 0 0 0 0 0 0 0 0 0 0 0 0 0 0 0 0 0 0 0 0 0 0 0 0 0 0 0 0 0 0 0 0 0 0 0 0 0 0 0 0 0 0 0
0 0 0 0 0 0 0 0 0 0 0 0 0 0 0 0 0 0 0 0 0 0 0 0 0 0 0 0 0 0 0 0 0 0 0 0 0 0 0 0 0 0 0 0 0 0 0 0 0
0 0 0 0 0 0 0 0 0 0 0 0 0 0 0 0 0 0 0 0 0 0 0 0 0 0 0 0 0 0 0 0 0 0 0 0 0 0 0 0 0 0 0 0 0 0 0 0 0
0 0 0 0 0 0 0 0 0 0 0 0 0 0 0 0 0 0 0 0 0 0 0 0 0 0 0 0 0 0 0 0 0 0 0 0 0 0 0 0 0 0 0 0 0 0 0 0 0
0 0 0 0 0 0 0 0 0 0 0 0 0 0 0 0 0 0 0 0 0 0 0 0 0 0 0 0 0 0 0 0 0 0 0 0 0 0 0 0 0 0 0 0 0 0 0 0 0
0 0 0 0 0 0 0 0 0 0 0 0 0 0 0 0 0 0 0 0 0 0 0 0 0 0 0 0 0 0 0 0 0 0 0 0 0 0 0 0 0 0 0 0 0 0 0 0 0
0 0 0 0 0 0 0 0 0 0 0 0 0 0 0 0 0 0 0 0 0 0 0 0 0 0 0 0 0 0 0 0 0 0 0 0 0 0 0 0 0 0 0 0 0 0 0 0 0
0 0 0 0 0 0 0 0 0 0 0 0 0 0 0 0 0 0 0 0 0 0 0 0 0 0 0 0 0 0 0 0 0 0 0 0 0 0 0 0 0 0 0 0 0 0 0 0 0
0 0 0 0 0 0 0 0 0 0 0 0 0 0 0 0 0 0 0 0 0 0 0 0 0 0 0 0 0 0 0 0 0 0 0 0 0 0 0 0 0 0 0 0 0 0 0 0 0
0 0 0 0 0 0 0 0 0 0 0 0 0 0 0 0 0 0 0 0 0 0 0 0 0 0 0 0 0 0 0 0 0 0 0 0 0 0 0 0 0 0 0 0 0 0 0 0 0
0 0 0 0 0 0 0 0 0 0 0 0 0 0 0 0 0 0 0 0 0 0 0 0 0 0 0 0 0 0 0 0 0 0 0 0 0 0 0 0 0 0 0 0 0 0 0 0 0
0 0 0 0 0 0 0 0 0 0 0 0 0 0 0 0 0 0 0 0 0 0 0 0 0 0 0 0 0 0 0 0 0 0 0 0 0 0 0 0 0 0 0 0 0 0 0 0 0
0 0 0 0 0 0 0 0 0 0 0 0 0 0 0 0 0 0 0 0 0 0 0 0 0 0 0 0 0 0 0 0 0 0 0 0 0 0 0 0 0 0 0 0 0 0 0 0 0
0 0 0 0 0 0 0 0 0 0 0 0 0 0 0 0 0 0 0 0 0 0 0 0 0 0 0 0 0 0 0 0 0 0 0 0 0 0 0 0 0 0 0 0 0 0 0 0 0
0 0 0 0 0 0 0 0 0 0 0 0 0 0 0 0 0 0 0 0 0 0 0 0 0 0 0 0 0 0 0 0 0 0 0 0 0 0 0 0 0 0 0 0 0 0 0 0 0
0 0 0 0 0 0 0 0 0 0 0 0 0 0 0 0 0 0 0 0 0 0 0 0 0 0 0 0 0 0 0 0 0 0 0 0 0 0 0 0 0 0 0 0 0 0 0 0 0
0 0 0 0 0 0 0 0 0 0 0 0 0 0 0 0 0 0 0 0 0 0 0 0 0 0 0 0 0 0 0 0 0 0 0 0 0 0 0 0 0 0 0 0 0 0 0 0 0
0 0 0 0 0 0 0 0 0 0 0 0 0 0 0 0 0 0 0 0 0 0 0 0 0 0 0 0 0 0 0 0 0 0 0 0 0 0 0 0 0 0 0 0 0 0 0 0 0
CIN
-437 -455 -0 -0 -0 -0 -0 -0 -0 -0 -0 -0 -0 -0 -0 -0 -0 -0 -0 -0 -0 -0 -0 -0 -0 -0 -0 -0 -0 -0 -0 -0 -0 -0 -0 -0 -0 -0 -1 -0 -0 -1 -0 -0 -0 -0 -0 -0 -0
-0 -395 -0 -0 -0 -0 -0 -0 -0 -0 -0 -0 -0 -0 -0 -0 -0 -0 -0 -0 -0 -0 -0 -0 -0 -0 -0 -0 -0 -0 -0 -0 -0 -0 -0 -0 -0 -0 -0 -0 -0 -0 -0 -0 -0 -0 -0 -0 -0
-288 -0 -0 -0 -0 -0 -0 -0 -0 -0 -0 -0 -0 -0 -0 -0 -0 -0 -0 -0 -0 -0 -0 -0 -0 -0 -0 -0 -0 -0 -0 -0 -0 -0 -0 -0 -0 -0 -0 -0 -0 -0 -0 -0 -0 -0 -0 -0 -0
-0 -0 -0 -0 -0 -0 -0 -0 -0 -0 -0 -0 -0 -0 -0 -0 -0 -0 -0 -0 -0 -0 -0 -0 -0 -0 -0 -0 -0 -0 -0 -0 -0 -0 -0 -0 -0 -0 -0 -0 -0 -0 -0 -0 -0 -0 -0 -0 -0
-0 -0 -0 -0 -0 -0 -0 -0 -0 -0 -0 -0 -0 -0 -0 -0 -0 -0 -0 -0 -0 -0 -0 -0 -0 -0 -0 -0 -0 -0 -0 -0 -0 -0 -0 -0 -0 -0 -0 -0 -0 -0 -0 -0 -0 -0 -0 -0 -0
-0 -0 -0 -0 -0 -0 -0 -0 -0 -0 -0 -0 -0 -0 -0 -0 -0 -0 -0 -0 -0 -0 -0 -0 -1 -0 -0 -0 -0 -0 -0 -0 -0 -0 -0 -0 -0 -0 -0 -0 -0 -0 -0 -0 -0 -0 -0 -0 -0
-0 -0 -0 -0 -0 -0 -0 -0 -0 -0 -0 -0 -0 -0 -0 -0 -0 -0 -0 -0 -0 -0 -0 -0 -0 -1 -0 -0 -0 -0 -0 -0 -0 -0 -0 -0 -0 -0 -0 -0 -0 -0 -0 -0 -0 -0 -0 -0 -0
-0 -0 -0 -0 -0 -0 -0 -0 -0 -0 -0 -0 -0 -0 -0 -0 -0 -0 -0 -0 -0 -0 -0 -0 -0 -0 -0 -0 -0 -0 -0 -0 -0 -0 -0 -0 -0 -0 -0 -0 -0 -0 -0 -0 -0 -0 -0 -0 -0
-0 -0 -0 -0 -0 -0 -0 -0 -0 -0 -0 -0 -0 -0 -0 -0 -0 -0 -0 -0 -0 -0 -0 -0 -0 -0 -0 -0 -0 -0 -0 -0 -0 -0 -0 -0 -0 -0 -0 -0 -0 -0 -0 -0 -0 -0 -0 -0 -0
-0 -0 -0 -0 -0 -0 -0 -0 -0 -0 -0 -0 -0 -0 -0 -0 -0 -0 -0 -0 -0 -0 -0 -0 -0 -0 -0 -0 -0 -0 -0 -0 -0 -0 -0 -0 -0 -0 -0 -0 -0 -0 -0 -0 -0 -0 -0 -0 -0
-0 -0 -0 -0 -0 -0 -0 -0 -0 -0 -0 -0 -0 -0 -0 -0 -0 -0 -0 -0 -0 -0 -0 -0 -0 -0 -0 -0 -0 -0 -0 -0 -0 -0 -0 -0 -0 -0 -0 -0 -0 -0 -0 -0 -0 -0 -0 -0 -0
-0 -0 -0 -0 -0 -0 -0 -0 -0 -0 -0 -0 -0 -0 -0 -0 -0 -0 -0 -0 -0 -0 -0 -0 -0 -0 -0 -0 -0 -0 -0 -0 -0 -0 -0 -0 -0 -0 -0 -0 -0 -0 -0 -0 -0 -0 -0 -0 -0
-0 -0 -0 -0 -0 -0 -0 -0 -0 -0 -0 -0 -0 -0 -0 -0 -0 -0 -0 -0 -0 -0 -0 -0 -0 -0 -0 -0 -0 -0 -0 -0 -0 -0 -0 -0 -0 -0 -0 -0 -0 -0 -0 -0 -0 -0 -0 -0 -0
-0 -0 -0 -0 -0 -0 -0 -0 -0 -0 -0 -0 -0 -0 -0 -0 -0 -0 -0 -0 -0 -0 -0 -0 -0 -0 -0 -0 -0 -0 -0 -0 -0 -0 -0 -0 -0 -0 -0 -0 -0 -0 -0 -0 -0 -0 -0 -0 -0
-0 -0 -0 -0 -0 -0 -0 -0 -0 -0 -0 -0 -0 -0 -0 -0 -0 -0 -0 -0 -0 -0 -0 -0 -0 -0 -0 -0 -0 -0 -0 -0 -0 -0 -0 -0 -0 -0 -0 -0 -0 -0 -0 -0 -0 -0 -0 -0 -0
-0 -0 -0 -0 -0 -0 -0 -0 -0 -0 -0 -0 -0 -0 -0 -0 -0 -0 -0 -0 -0 -0 -0 -0 -0 -0 -0 -0 -0 -0 -0 -0 -0 -0 -0 -0 -0 -0 -0 -0 -0 -0 -0 -0 -0 -0 -0 -0 -0
-0 -0 -0 -0 -0 -0 -0 -0 -0 -0 -0 -0 -0 -0 -0 -0 -0 -0 -0 -0 -0 -0 -0 -0 -0 -0 -0 -0 -0 -0 -0 -0 -0 -0 -0 -0 -0 -0 -0 -0 -0 -0 -0 -0 -0 -0 -0 -0 -0
-0 -0 -0 -0 -0 -0 -0 -0 -0 -0 -0 -0 -0 -0 -0 -0 -0 -0 -0 -0 -0 -0 -0 -0 -0 -0 -0 -0 -0 -0 -0 -0 -0 -0 -0 -0 -0 -0 -0 -0 -0 -0 -0 -0 -0 -0 -0 -0 -0
-0 -0 -0 -0 -0 -0 -0 -0 -0 -0 -0 -0 -0 -0 -0 -0 -0 -0 -0 -0 -0 -0 -0 -0 -0 -0 -0 -0 -0 -0 -0 -0 -0 -0 -0 -0 -0 -0 -0 -0 -0 -0 -0 -0 -0 -0 -0 -0 -0
-0 -0 -0 -0 -0 -0 -0 -0 -0 -0 -0 -0 -0 -0 -0 -0 -0 -0 -0 -0 -0 -0 -0 -0 -0 -0 -0 -0 -0 -0 -0 -0 -0 -0 -0 -0 -0 -0 -0 -0 -0 -0 -0 -0 -0 -0 -0 -0 -0
-0 -0 -0 -0 -0 -0 -0 -0 -0 -0 -0 -0 -0 -0 -0 -0 -0 -0 -0 -0 -0 -0 -0 -0 -0 -0 -0 -0 -0 -0 -0 -0 -0 -0 -0 -0 -0 -0 -0 -0 -0 -0 -0 -0 -0 -0 -0 -0 -0
-0 -0 -0 -0 -0 -0 -0 -0 -0 -0 -0 -0 -0 -0 -0 -0 -0 -0 -0 -0 -0 -0 -0 -0 -0 -0 -0 -0 -0 -0 -0 -0 -0 -0 -0 -0 -0 -0 -0 -0 -0 -0 -0 -0 -0 -0 -0 -0 -0
-0 -0 -0 -0 -0 -0 -0 -0 -0 -0 -0 -0 -0 -0 -0 -0 -0 -0 -0 -0 -0 -0 -0 -0 -0 -0 -0 -0 -0 -0 -0 -0 -0 -0 -0 -0 -0 -0 -0 -0 -0 -0 -0 -0 -0 -0 -0 -0 -0
-0 -0 -0 -0 -0 -0 -0 -0 -0 -0 -0 -0 -0 -0 -0 -0 -0 -0 -0 -0 -0 -0 -0 -0 -0 -0 -0 -0 -0 -0 -0 -0 -0 -0 -0 -0 -0 -0 -0 -0 -0 -0 -0 -0 -0 -0 -0 -0 -0
-0 -0 -0 -0 -0 -0 -0 -0 -0 -0 -0 -0 -0 -0 -0 -0 -0 -0 -0 -0 -0 -0 -0 -0 -0 -0 -0 -0 -0 -0 -0 -0 -0 -0 -0 -0 -0 -0 -0 -0 -0 -0 -0 -0 -0 -0 -0 -0 -0
-0 -0 -0 -0 -0 -0 -0 -0 -0 -0 -0 -0 -0 -0 -0 -0 -0 -0 -0 -0 -0 -0 -0 -0 -0 -0 -0 -0 -0 -0 -0 -0 -0 -0 -0 -0 -0 -0 -0 -0 -0 -0 -0 -0 -0 -0 -0 -0 -0
-0 -0 -0 -0 -0 -0 -0 -0 -0 -0 -0 -0 -0 -0 -0 -0 -0 -0 -0 -0 -0 -0 -0 -0 -0 -0 -0 -0 -0 -0 -0 -0 -0 -0 -0 -0 -0 -0 -0 -0 -0 -0 -0 -0 -0 -0 -0 -0 -0
-0 -0 -0 -0 -0 -0 -0 -0 -0 -0 -0 -0 -0 -0 -0 -0 -0 -0 -0 -0 -0 -0 -0 -0 -0 -0 -0 -0 -0 -0 -0 -0 -0 -0 -0 -0 -0 -0 -0 -0 -0 -0 -0 -0 -0 -0 -0 -0 -0
-0 -0 -0 -0 -0 -0 -0 -0 -0 -0 -0 -0 -0 -0 -0 -0 -0 -0 -0 -0 -0 -0 -0 -0 -0 -0 -0 -0 -0 -0 -0 -0 -0 -0 -0 -0 -0 -0 -0 -0 -0 -0 -0 -0 -0 -0 -0 -0 -0
-0 -0 -0 -0 -0 -0 -0 -0 -0 -0 -0 -0 -0 -0 -0 -0 -0 -0 -0 -0 -0 -0 -0 -0 -0 -0 -0 -0 -0 -0 -0 -0 -0 -0 -0 -0 -0 -0 -0 -0 -0 -0 -0 -0 -0 -0 -0 -0 -0
Wind_Speed
6 4 3 5 6 6 1 1 0 1 2 3 2 4 4 3 2 3 4 4 4 5 2 4 6 6 3 5 3 6 7 6 8 8 11 11 11 11 12 13 14 13 14 13 15 15 15 16 16
4 1 5 3 7 4 4 1 2 0 4 6 4 2 5 1 1 1 4 5 5 5 3 5 6 5 4 4 3 6 6 5 8 6 9 11 10 12 12 12 13 13 15 14 14 14 14 15 15
2 4 5 5 3 2 2 2 4 2 6 0 3 4 3 2 0 7 5 8 5 5 4 3 7 7 5 3 5 4 5 5 5 6 9 9 11 11 12 12 13 13 13 13 13 14 14 14 15
3 5 5 6 2 1 1 4 4 6 0 2 3 3 1 2 4 7 7 8 7 5 4 6 8 6 5 4 3 3 3 4 4 6 7 8 10 11 12 12 12 12 12 11 12 12 12 12 14
5 4 5 4 1 1 0 4 6 3 4 2 2 2 2 1 2 6 8 8 8 5 4 3 8 7 6 5 3 3 3 3 3 4 7 7 10 10 10 11 11 11 11 10 9 12 13 13 13
5 3 5 2 1 1 1 4 4 3 3 2 3 5 4 1 5 6 7 8 6 7 5 4 8 8 6 5 4 3 2 2 2 3 6 6 8 9 8 9 9 10 10 10 11 12 11 12 13
6 4 3 3 3 1 4 7 5 5 4 4 7 4 2 2 6 7 7 6 6 5 5 2 1 4 7 5 4 3 2 2 1 2 4 4 7 8 8 8 8 9 9 9 10 11 12 12 12
5 5 3 1 3 3 4 4 3 6 4 3 5 3 3 5 9 7 5 4 4 4 5 4 2 3 3 3 4 2 1 1 1 1 3 4 8 9 8 8 8 8 9 9 8 10 11 11 11
3 6 2 5 5 2 4 3 1 2 5 2 4 4 1 8 10 7 3 1 1 3 4 3 4 3 2 2 1 2 2 2 2 4 4 6 3 4 5 7 8 8 8 8 8 9 10 9 10
6 4 7 4 3 2 4 4 6 3 2 4 3 2 5 8 9 10 8 9 6 6 6 5 4 4 3 2 2 1 2 2 2 2 2 3 2 2 3 5 7 7 7 8 8 8 9 7 3
2 3 3 1 1 2 4 1 4 6 4 9 8 6 9 6 8 10 9 8 11 6 4 6 6 4 5 4 2 1 1 0 1 2 1 1 1 2 2 3 3 4 6 4 5 5 3 4 3
3 2 2 1 1 2 3 4 2 7 7 2 9 7 8 10 13 13 11 9 7 7 8 6 7 6 6 3 3 3 2 2 3 3 3 2 1 1 1 1 2 2 2 3 3 2 3 4 4
3 1 1 1 1 1 1 4 5 8 9 2 6 8 11 12 11 7 6 6 6 8 8 8 7 7 6 6 4 3 4 4 4 3 4 3 3 3 2 2 2 2 2 1 3 3 3 3 4
1 1 1 1 0 0 1 2 2 3 2 5 7 9 9 11 13 5 6 8 9 8 9 8 8 8 6 7 6 5 4 5 4 4 5 5 3 3 3 3 3 2 1 2 2 3 3 3 3
2 3 4 1 0 1 2 4 8 4 3 6 7 7 7 9 6 12 11 10 10 9 8 9 9 8 8 8 7 5 5 5 5 5 6 6 5 5 4 3 2 3 2 2 2 3 2 3 3
4 5 4 1 2 1 3 8 4 1 5 8 8 7 7 9 10 8 8 9 8 7 10 8 8 9 9 8 6 5 5 5 5 4 4 6 6 6 4 3 4 3 2 2 1 1 3 2 2
7 1 2 7 2 1 2 7 4 1 4 8 8 8 8 8 9 11 10 10 9 11 9 9 9 9 10 7 5 5 6 5 5 4 5 6 7 7 5 4 4 3 3 2 2 1 1 2 4
3 2 3 4 4 1 3 13 9 8 8 10 8 8 8 9 17 9 10 10 9 9 9 8 7 8 7 3 2 2 3 4 4 5 5 7 6 7 6 5 5 4 3 3 2 1 1 3 3
2 1 2 4 1 3 3 8 13 7 4 8 9 9 10 12 6 8 8 9 8 8 8 9 8 9 5 3 3 2 5 4 4 5 7 7 7 7 6 5 5 5 5 5 4 2 2 2 0
1 1 4 5 1 1 5 11 6 4 4 6 9 9 11 7 7 8 8 8 9 11 11 9 11 9 9 5 3 4 3 4 3 4 6 8 8 8 7 7 6 7 4 5 5 4 2 1 2
1 2 1 3 6 0 6 8 6 3 3 3 6 6 6 10 10 9 9 10 7 10 11 11 12 10 9 9 3 2 1 1 2 4 4 9 10 9 9 8 7 7 5 5 6 6 6 4 2
2 2 1 2 4 2 3 3 5 4 8 3 5 5 8 8 6 7 8 7 9 13 7 9 8 10 9 9 7 9 9 8 6 5 4 5 8 10 10 10 9 8 6 7 6 6 5 5 5
3 2 1 1 2 2 2 4 8 4 3 3 5 6 5 6 6 8 9 8 6 6 8 7 8 8 9 10 12 9 11 9 5 3 6 6 6 9 9 10 9 9 7 8 8 6 7 6 4
4 3 4 3 2 3 1 4 7 4 4 2 3 5 5 5 4 6 6 6 6 5 7 7 9 10 9 11 12 13 14 12 5 6 7 6 5 6 9 9 10 10 9 10 9 9 8 8 6
4 5 3 3 4 6 2 2 10 4 5 5 3 6 6 5 4 5 6 6 5 6 8 7 8 12 9 11 11 15 16 12 13 11 8 8 6 5 11 10 10 9 11 10 9 9 9 9 8
5 6 6 4 4 4 2 6 6 6 3 6 4 5 5 4 4 5 6 6 7 7 7 8 8 11 8 9 13 10 11 8 9 11 9 8 9 9 8 9 10 11 10 10 9 7 8 9 9
3 3 3 7 3 3 3 8 9 5 5 4 7 3 4 5 5 6 7 6 7 7 8 8 8 9 8 9 7 9 9 10 11 12 9 9 9 8 7 9 9 10 10 10 9 8 10 9 10
2 4 4 3 4 5 5 6 7 6 9 7 7 7 5 5 6 5 5 6 5 6 5 5 7 9 8 8 7 7 9 11 11 8 10 10 9 7 7 8 9 8 9 9 9 8 8 10 9
2 1 4 4 3 5 1 8 8 10 10 11 10 8 7 6 6 5 5 5 4 4 4 5 6 7 8 7 6 8 8 8 7 8 8 9 7 7 8 9 8 9 9 9 10 11 11 12 12
3 6 6 6 5 1 4 10 3 7 8 8 9 9 6 6 7 6 6 4 4 3 3 4 5 5 6 6 5 7 6 6 7 8 8 6 8 6 9 8 9 9 9 9 11 12 12 13 12
Wind_Direction
344 342 61 39 52 63 71 334 152 41 48 330 22 79 127 56 130 200 305 189 165 151 193 142 173 108 115 87 35 42 42 55 31 37 32 42 47 43 46 40 44 47 44 41 38 38 46 43 49
335 14 42 77 78 53 289 269 100 15 145 139 85 67 41 86 131 103 102 223 180 147 128 122 159 134 117 117 50 56 60 22 52 32 44 53 40 45 45 44 41 45 46 42 42 43 47 40 52
151 43 76 83 101 145 214 179 135 79 151 87 96 53 151 169 120 171 234 158 155 141 141 184 140 169 139 168 80 77 70 43 51 18 46 48 50 49 49 49 46 46 48 44 44 49 46 40 51
52 14 36 77 77 277 255 156 133 122 101 86 127 68 309 200 168 195 156 149 142 156 159 211 167 152 153 160 119 92 79 54 47 21 51 40 55 47 46 47 52 50 51 49 43 46 49 52 54
37 57 60 70 8 312 290 157 145 134 142 133 165 184 253 56 32 145 143 146 149 166 185 190 174 169 178 133 132 117 85 61 45 22 60 41 48 49 43 49 50 51 46 51 52 45 49 54 54
44 89 66 159 220 2 176 155 143 136 140 150 82 141 234 343 133 173 147 156 159 161 172 188 185 179 183 161 151 134 108 76 47 32 61 55 48 41 37 41 46 45 43 42 47 45 50 53 55
106 78 136 138 171 303 198 154 159 165 161 237 146 139 263 220 198 160 161 152 162 169 158 163 294 192 190 178 163 158 124 60 43 28 48 49 38 34 34 29 35 25 38 44 50 52 42 49 59
100 91 102 136 176 256 171 168 126 152 213 88 154 207 240 209 154 132 131 149 166 182 177 174 155 83 62 43 171 173 137 56 64 84 37 17 30 17 11 18 351 24 27 33 41 41 44 37 51
105 65 146 188 152 238 154 149 191 75 114 236 194 173 296 127 124 113 110 144 201 228 208 188 168 151 119 96 238 198 208 198 110 36 341 25 7 351 351 340 352 8 17 20 23 41 41 51 35
77 97 203 182 189 206 189 181 175 143 152 243 243 148 98 129 150 162 178 192 198 209 214 202 196 185 170 199 118 100 63 76 64 42 0 348 323 294 278 323 339 355 15 16 24 30 38 45 35
135 140 178 188 171 174 177 211 159 146 237 225 210 178 154 154 172 182 198 193 201 202 201 195 202 198 193 208 168 147 159 154 243 240 238 292 6 326 339 341 346 351 359 3 15 11 19 19 23
84 82 143 174 69 116 175 127 234 191 227 217 223 151 159 169 190 195 200 200 181 196 205 203 199 194 213 209 193 193 193 213 236 235 230 213 254 279 265 277 299 323 330 336 356 357 343 2 356
72 184 114 143 122 204 123 239 234 246 248 71 116 150 175 188 204 212 203 199 186 207 212 211 191 202 208 208 206 203 217 222 227 229 227 199 218 229 224 244 253 276 300 320 333 339 346 346 344
147 132 335 224 204 242 217 273 21 276 112 150 164 195 188 193 201 168 197 207 198 207 214 207 203 204 194 209 204 211 207 227 222 229 226 217 211 224 228 250 255 275 250 298 316 323 331 328 332
76 1 339 232 11 346 114 278 236 254 140 197 216 218 211 221 182 211 212 212 199 211 205 206 204 196 199 207 207 206 212 210 221 224 228 225 211 222 228 242 259 252 250 301 330 324 324 326 327
51 50 15 297 146 17 86 278 258 118 158 229 235 237 234 232 223 227 217 219 206 207 209 208 201 192 201 207 206 206 208 216 223 219 219 221 221 216 220 232 243 246 236 238 264 288 306 297 307
11 248 313 332 198 43 104 271 277 107 197 254 240 240 239 253 247 231 219 216 207 208 210 214 202 200 203 207 207 209 218 221 225 218 214 220 217 214 207 219 241 232 232 236 235 266 172 311 310
264 342 319 271 330 316 275 272 279 259 216 235 245 245 242 243 244 228 219 216 213 210 212 216 203 209 197 174 170 237 239 241 232 226 216 217 217 213 205 219 231 210 222 249 253 256 309 249 277
116 99 276 277 346 303 260 278 286 301 224 246 246 240 241 238 258 227 226 213 209 213 212 208 198 208 157 150 172 224 227 211 227 221 221 212 216 213 208 210 212 206 208 216 205 212 228 299 9
60 341 286 285 341 14 342 296 282 282 264 213 230 243 242 254 260 240 232 218 208 214 211 204 210 192 196 190 189 176 179 214 221 208 216 215 211 209 210 204 211 205 202 217 211 183 190 247 199
235 201 251 243 330 5 324 310 336 294 324 255 257 247 251 238 250 250 229 223 209 221 211 210 209 203 200 192 135 112 58 305 263 227 233 221 209 211 209 203 206 208 191 208 202 184 179 215 247
266 174 124 336 36 233 21 258 299 311 314 290 307 281 267 258 249 247 239 234 215 227 201 207 200 199 198 174 195 197 219 226 220 209 211 217 202 215 212 211 206 208 200 207 209 193 188 159 212
191 95 111 87 89 32 331 80 266 352 336 304 311 308 305 279 244 259 246 244 246 218 205 204 200 204 197 188 203 206 226 236 242 219 228 224 213 216 214 210 208 211 205 215 200 187 191 194 179
139 95 51 63 76 21 333 117 283 211 201 274 301 315 314 324 298 265 261 256 256 223 204 195 201 221 200 195 201 208 222 228 224 229 233 236 219 218 220 215 214 215 209 208 209 208 200 202 205
82 62 354 11 9 217 345 45 240 237 226 211 266 313 328 320 315 295 285 272 271 234 223 215 209 236 204 203 207 213 224 222 230 233 231 231 230 217 227 209 212 215 218 213 203 198 208 200 205
182 156 158 206 199 252 290 234 245 210 230 236 256 270 287 323 308 287 272 263 262 256 237 223 220 247 210 203 222 218 222 223 230 233 227 230 229 228 216 206 214 218 213 210 202 207 211 202 211
186 192 178 102 11 27 243 289 298 223 254 228 246 275 303 321 311 287 282 259 258 252 242 227 229 247 236 221 218 219 213 216 228 230 221 229 229 229 214 208 210 215 213 208 200 211 214 209 212
176 168 79 11 169 244 281 273 237 209 217 225 236 233 264 285 310 306 289 275 263 257 260 247 240 246 255 238 221 228 218 219 228 226 226 223 232 216 214 207 211 210 211 208 201 212 216 208 215
135 238 53 120 131 164 243 263 211 207 194 196 216 222 231 263 274 285 288 288 292 284 269 266 260 262 269 248 230 226 231 225 223 227 233 227 225 209 211 213 210 213 211 207 205 217 216 212 221
185 197 159 125 212 132 148 273 227 223 211 194 208 216 224 226 238 244 255 275 282 286 297 293 297 292 275 276 255 246 246 231 231 233 232 220 226 212 217 209 213 215 214 209 211 220 222 218 221